Details From LIMJ - Genova Sestri
To LIRQ - Firenze
Flight Number -
Tags decoded
Created
Modified
Stats Distance 112 nm / 208 km
Max Altitude 0 ft / 0 m
Waypoints 7
Social Downloads 11
Likes 0
Share VATSIM

Download

Looking for another format? Having issues loading an existing format? Contact us
Advertisement - Login to hide

Notes

Requested: LIMJ GEN KALMO BEROK RUXOL FRZ LIRQ

Route

LIMJ GEN KALMO BEROK RUXOL FRZ LIRQ

ID Type Via Altitude (ft/m) Position (lat/lon) Dist (leg/tot) Name
O LIMJ APT - 0 / 0 44.41196 / 8.84187 - / 0 nm Genova Sestri
GEN NDB - 0 / 0 44.42389 / 9.08333 10 / 10 nm GENOVA NDB
KALMO FIX - 0 / 0 44.32167 / 9.59417 22 / 33 nm
BEROK FIX - 0 / 0 44.16556 / 10.35167 33 / 67 nm
RUXOL FIX - 0 / 0 44.11528 / 10.59306 10 / 77 nm
FRZ VOR - 0 / 0 44.02718 / 11.00331 18 / 96 nm FIRENZE VORTAC
O LIRQ APT - 0 / 0 43.80998 / 11.20512 15 / 112 nm Firenze

Altitude Profile

Advertisement - Login to hide

LIMJ

Details ICAO LIMJ (GOA)
Name Genova-Sestri "Cristoforo Colombo"
Region Italy
Timezone Unknown
Stats Elevation 13 ft / 4 m (AMSL)
Location 44.412000° 8.841870°
Runways 1
Magnetic Variation 2.649° E

METAR

LIMJ 032050Z 04003KT CAVOK 12/04 Q1015

Decode

TAF

TAF LIMJ 031700Z 0318/0418 26006KT CAVOK

Decode

Departure Runways

ID Width Length Bearing (true/mag) Surface Threshold Overrun Markings Lighting
10 148 ft / 45 m 9,576 ft / 2,919 m 105.34° / 102.69° ASPHALT 0 ft / 0 m 197 ft / 60 m PREC-APP CENTERLINE EDGE THRESHOLD REIL-OMNI
28 148 ft / 45 m 9,576 ft / 2,919 m 285.37° / 282.72° ASPHALT 535 ft / 163 m 0 ft / 0 m PREC-APP CENTERLINE EDGE THRESHOLD SALS REIL-OMNI

LIRQ

Details ICAO LIRQ (FLR)
Name Firenze-Peretola "Amerigo Vespucci"
Region Italy
Timezone Europe/Rome (UTC+2.0)
Stats Elevation 142 ft / 43 m (AMSL)
Location 43.810000° 11.205100°
Runways 1
Magnetic Variation 3.128° E

METAR

LIRQ 032220Z 23004KT CAVOK 10/M01 Q1016

Decode

TAF

TAF LIRQ 031700Z 0318/0418 03010KT CAVOK BECMG 0318/0320 VRB05KT BECMG 0408/0410 04012KT

Decode

Destination Runways

ID Width Length Bearing (true/mag) Surface Threshold Overrun Markings Lighting
05 98 ft / 30 m 5,123 ft / 1,561 m 48.10° / 44.98° ASPHALT 338 ft / 103 m 0 ft / 0 m PREC-APP CENTERLINE EDGE THRESHOLD SSALF TDZ REIL-OMNI
23 98 ft / 30 m 5,123 ft / 1,561 m 228.11° / 224.99° ASPHALT 1,903 ft / 580 m 0 ft / 0 m VISUAL CENTERLINE EDGE THRESHOLD REIL-OMNI

Approach Navaids

Runway Type Ident Frequency Range Bearing (true/mag) Slope Elevation
05 GS IFZ 110.30 MHz 10 nm / 19 km 47.00° / 43.87 ° 3.00° 144 ft / 44 m (AMSL)
05 DME IFZ 110.30 MHz 18 nm / 33 km - - 144 ft / 44 m (AMSL)
05 LOC-ILS IFZ 110.30 MHz 18 nm / 33 km 48.10° / 44.97 ° - 131 ft / 40 m (AMSL)

Popular Alternatives